"Pseudo-MPEC" for C2KGVW2

Created 2020 May 26 12:07:03 UT using Find_Orb

Click here for an explanation of pseudo-MPECs

 
 Astrometry: 
     C2KGVW2  C2020 04 18.32407 14 14 17.86 +29 41 00.1    ~4I8b 22.6 GVNEOCPG96
     C2KGVW2  C2020 04 18.33214 14 14 17.11 +29 41 04.5    ~4I8b 21.9 GVNEOCPG96
     C2KGVW2  C2020 04 18.33728 14 14 16.60 +29 41 06.6    ~4I8b 22.1 GVNEOCPG96
     C2KGVW2  C2020 04 18.34243 14 14 16.10 +29 41 09.7    ~4I8b 21.9 GVNEOCPG96
     C2KGVW2  C2020 04 18.44408 14 14 06.19 +29 42 00.7    ~4IBM 21.9 GVNEOCPV06
     C2KGVW2  C2020 04 18.44883 14 14 05.73 +29 42 03.3    ~4IBM 21.7 GVNEOCPV06
     C2KGVW2  C2020 04 18.45359 14 14 05.23 +29 42 05.5    ~4IBM 21.4 GVNEOCPV06
     C2KGVW2  C2020 04 18.45835 14 14 04.81 +29 42 08.1    ~4IBM 21.9 GVNEOCPV06
     C2KGVW2 KC2020 04 19Dt@WT0]/mh1+Y\]6J[EX2G#KAstrometry_MERq?rNN]2]PT!;:ZH21
     C2KGVW2 KC2020 04 19w24\S3neredacted;ZIB+.oP`gp2oxo'[y6\;Pp8bhxA9m,sp(Y$H21
     C2KGVW2  C2020 04 21.32420 14 09 26.35 +30 05 23.0    ~4L8b 22.4 GVNEOCPV06
     C2KGVW2  C2020 04 21.32974 14 09 25.79 +30 05 25.4    ~4L8b 22.2 GVNEOCPV06
     C2KGVW2  C2020 04 21.33529 14 09 25.21 +30 05 28.0    ~4L8b 21.8 GVNEOCPV06
     C2KGVW2  C2020 04 22.44260 14 07 36.91 +30 13 53.7    ~4MB7 20.5 GVNEOCPV06
     C2KGVW2  C2020 04 22.44716 14 07 36.69 +30 13 54.9    ~4MB7       VNEOCPV06
     C2KGVW2  C2020 04 22.45171 14 07 36.09 +30 13 58.2    ~4MB7 21.5 GVNEOCPV06
     C2KGVW2  C2020 04 22.45627 14 07 35.66 +30 14 00.4    ~4MB7 22.0 GVNEOCPV06
     C2KGVW2 2C2020 04 22R/sY*hWJ8S`Nn6yaRgAP/5wobmRAK*+C#dNEv(oh[/=*ypEQ]f\FF65
     C2KGVW2 2C2020 04 22U3p'9,,DPccXb_`2MuAD%A:JLRkbRFvW$XcdVm'?%j$e,aw*@EkEF65
     C2KGVW2 2C2020 04 22Q\-]\)`!:3clickX)i%d/+.gp0M1bXRWw%.33Eop_Je$7Ca'HKjSF65
     C2KGVW2  C2020 04 23.37536 14 06 05.77 +30 20 46.4    ~4N9b 22.0 GVNEOCPV06
     C2KGVW2  C2020 04 23.37981 14 06 05.35 +30 20 48.4    ~4N9b 22.1 GVNEOCPV06
     C2KGVW2  C2020 04 23.38427 14 06 04.91 +30 20 50.5    ~4N9b 22.0 GVNEOCPV06
     C2KGVW2  C2020 04 23.38873 14 06 04.47 +30 20 52.3    ~4N9b 22.2 GVNEOCPV06
     C2KGVW2 pC2020 04 24Z1$D_i,=AgtF\QY'!*AKoEcl`DnehySD8o*/kK)/r?;+!iBA8A^*L01
     C2KGVW2 pC2020 04 24'\Sl$UlX[jp*NZuT=_L]T18pUZkGU*R\f_(k:NIOsYGS/!qH'.lFL01
     C2KGVW2 pC2020 04 24LGqo5!!hereqB`S3(6O/bG=KH4sOBOBhUCHMl]Nm.p-a]-Cs6D]SL01
     C2KGVW2  C2020 04 26.20064 14 01 29.25 +30 40 14.2    ~4Q5M 21.7 GVNEOCPV06
     C2KGVW2  C2020 04 26.20540 14 01 28.76 +30 40 15.9    ~4Q5M 22.0 GVNEOCPV06
     C2KGVW2  C2020 04 26.21016 14 01 28.31 +30 40 17.7    ~4Q5M 22.1 GVNEOCPV06
     C2KGVW2  C2020 04 26.21491 14 01 27.81 +30 40 19.6    ~4Q5M 21.9 GVNEOCPV06
     C2KGVW2  C2020 04 28.30968 13 58 02.77 +30 53 25.1    ~4S8M 22.2 GVNEOCPV06
     C2KGVW2  C2020 04 28.31548 13 58 02.20 +30 53 27.0    ~4S8M 22.1 GVNEOCPV06
     C2KGVW2  C2020 04 28.32127 13 58 01.61 +30 53 29.3    ~4S8M 21.9 GVNEOCPV06
     C2KGVW2  C2020 04 28.32707 13 58 01.06 +30 53 31.1    ~4S8M 22.3 GVNEOCPV06
     C2KGVW2  C2020 04 28k$nhRwd'?,]=Td/kl#Scdnr8Nb61o'etO-LMq-F#Dc1bsVUPc:WrF52
     C2KGVW2  C2020 04 28fIF)_1xAPLp]RCT`j1^-vGZR0;t%MlEvmN\$'#USsl,q!F;2*Hc+F52
     C2KGVW2  C2020 04 28);-m1[L^(rZupS'sb[G/gr033vq5_#r!d@fl$(d8W?/dF\'')6HUF52
     C2KGVW2  C2020 04 28F5BB-X(d*](J#(q'd5?uT(:!eu\H1+$1tF-[XiE=L(gOd80)NPX(F52
     C2KGVW2  C2020 04 29.28423 13 56 27.61 +30 59 07.4    ~4T7b 21.0 GVNEOCPG96
     C2KGVW2  C2020 04 29.28945 13 56 27.12 +30 59 08.6    ~4T7b 21.6 GVNEOCPG96
     C2KGVW2  C2020 04 29.29465 13 56 26.62 +30 59 10.8    ~4T7b 21.5 GVNEOCPG96
     C2KGVW2  C2020 04 29.29986 13 56 26.11 +30 59 12.8    ~4T7b 22.0 GVNEOCPG96
     C2KGVW2  C2020 05 01.42085 13 52 59.64 +31 10 44.3    ~51Aq 21.8 GVNEOCPV06
     C2KGVW2  C2020 05 01.43139 13 52 58.63 +31 10 47.5    ~51Aq 22.2 GVNEOCPV06
     C2KGVW2  C2020 05 01.43931 13 52 57.90 +31 10 49.8    ~51Aq 21.9 GVNEOCPV06
     C2KGVW2  C2020 05 13.25347 13 34 26.27 +31 53 46.2    ~5D6q 22.5 GVNEOCPV06
     C2KGVW2  C2020 05 13.25901 13 34 25.77 +31 53 46.9    ~5D6q 21.9 GVNEOCPV06
     C2KGVW2  C2020 05 13.26456 13 34 25.26 +31 53 47.9    ~5D6q 22.1 GVNEOCPV06
     C2KGVW2  C2020 05 13.27010 13 34 24.77 +31 53 48.8    ~5D6q 22.0 GVNEOCPV06
     C2KGVW2  C2020 05 132r)wm@FXK$iy$w[7fTmbuvM4aVbk4j#aN!Tn!gs%Vr)-S@N4NuvJF52
     C2KGVW2  C2020 05 13KI^2Y#nj'/r\c@]P9afyHstv-HK*rw-0/g0g5UnD'PaHgl;)-'(UF52
     C2KGVW2  C2020 05 13!Rb%WlwTT.dArQ0My.U)oWp;rSHT5$/80q=gnBrV`m)kfor#0j1?F52
     C2KGVW2 2C2020 05 13MZvCvoPx#e2Wf)N.GC*sSjf\5CmYT2,ic)?2Y=5D@GV`**n,'x%[F65
     C2KGVW2 2C2020 05 13BFqWi6x+BgnK,^Io)Cp_^CR`KQ@`sf1QUPAS[dt)i/N*$1'tpeNmF65
     C2KGVW2 2C2020 05 135IU$vu6'P@I^UgX^V9m*CK;$yejMYbQeK0aFiw@l5uYmY5,@)+5.F65
     C2KGVW2 2C2020 05 13*!R14nNeYSu@OcQoUfD43WJ@]D#B3eLh=8e@BDsq?MG($p8D;LXrF65
     C2KGVW2 2C2020 05 17PR0N/RbuY*lqaXk)VdTu8UXpLpogB'9M3IUBV=qid:cv+F,o\aV:F65
     C2KGVW2 2C2020 05 17X(0MI,.b3Aficv`[eby%KOdq53Lqu(1-du4g\BOoco^kyaVa:5gCF65
     C2KGVW2 2C2020 05 17y^Y3dPbFod7]QM%[CBP[HBZ0Rv$BcHu![bfeJ2'swsV(F5cCW:Y6F65
     C2KGVW2 2C2020 05 179jB5nRp:TQ@=',x]q1frFO;XCN^YhNexplanationVWvt0G4dRk^F65
     C2KGVW2 |C2020 05 19IrjHLNs7:E^C;pgiTW\Vi2+yYs=fd!56E7=M1TgVl1qbRaRrR/;eH06
     C2KGVW2 |C2020 05 19nnxg1dRfTBfk_9V:'3,l^oDyePLr9g]-\5umT'4.ISc90Wtwcf[2H06
     C2KGVW2 1C2020 05 19d5R;aJTNab0P7X*llAFF^_V;4SYThE?#w4d!B9^#mu5wm[ji'jMA658
     C2KGVW2 1C2020 05 19FiUSH/Am(EEc_V=C40?Iaf++U2u)SALbtNrpuo@qXuVi8S#LLc9W658
     C2KGVW2 1C2020 05 19onDjQwfW::+20'fY!]lv9[hm^jsd.2B#[fGf=3DWNOC8V0r2mbay658
     C2KGVW2 1C2020 05 19Q.7u'!)nw`Oc.;[u_l#ijpyB1G`tb_%JvTRw^ODO8,DM(*t_MdUL658
     C2KGVW2 1C2020 05 19w^e]2(BkRrE^J]^y\gkh2sJpm0CW?IO=anMvw)IAs!r]G37*]^no658
     C2KGVW2 1C2020 05 194*DQk8+?5\7r,U9%1sRHAJNTa38E'r:;8FHP,g?h$7t4QTEJ`mE0658
     C2KGVW2 !C2020 05 25vTq/lp6d,u,C,8dL'B=UVn/!sooYkrPTj]P2t7/'Os-0;J@r?)Ml673
     C2KGVW2 !C2020 05 25yB0Xg]cA!=f86pJ0-3k7,x!IAtBKG4$Dx6e[S-]qsO-iTqQgchNa673
     C2KGVW2 ^C2020 05 25.34849813 17 23.318+32 03 02.32   ~5P97 22.12GVNEOCP568
     C2KGVW2 ^C2020 05 25.34967813 17 23.226+32 03 02.29   ~5P97 22.17GVNEOCP568
     C2KGVW2 ^C2020 05 25.35085813 17 23.133+32 03 02.24   ~5P97 22.17GVNEOCP568

Station data:
(568) Mauna Kea  (N19.826116 W155.472200)  US/Hawaii.
(658) Dominion Astrophysical Observatory  (N48.519987 W123.417000)
   Canada/BritColumbia. 1.82-m Plaskett reflector.
(673) Table Mountain Observatory, Wrightwood  (N34.381488 W117.682170)
   US/California.  Observer W. M. Owen Jr. 0.61-m f/16 reflector + CCD.
(F52) Pan-STARRS 2, Haleakala  (N20.707384 W156.255910)  US/Hawaii. 1.8-m
   Ritchey-Chrétien + CCD.
(F65) Haleakala-Faulkes Telescope North  (N20.707094 W156.257600)  US/Hawaii.
   2.0-m Faulkes Telescope North.
(G96) Mt. Lemmon Survey  (N32.442754 W110.788720)  US/Arizona.  Observers T.
   A. Pruyne, B. M. Africano, E. J. Christensen, G. A. Farneth, D. C. Fuls,
   A. R. Gibbs, A. D. Grauer, H. Gröller, J. A. Johnson, R. A. Kowalski, S.
   M. Larson, G. J. Leonard, D. Rankin, R. L. Seaman, F. C. Shelly. 1.5-m
   reflector + 10K CCD.
(H06) RAS Observatory, Mayhill  (N32.903325 W105.528700)  US/New
   Mexico.  Observers E. Guido, G. Sostero, V. Gonano, L. Donato.
(H21) Astronomical Research Observatory, Westfield  (N39.483057 W87.968270)
   US/Illinois. 0.76-m f/3.0 astrograph + CCD.
(L01) Višnjan Observatory, Tičan  (N45.290900 E13.749300)  Croatia.
   Observers K. Korlević, E. Pettarin. Measurer E. Pettarin. 1.0-m f/2.9
   reflector + CCD.
(V06) Catalina Sky Survey-Kuiper  (N32.416847 W110.732550)  US/Arizona.
   Observers T. A. Pruyne, B. M. Africano, E. J. Christensen, G. A. Farneth,
   D. C. Fuls, A. R. Gibbs, A. D. Grauer, H. Gröller, J. A. Johnson, R. A.
   Kowalski, S. M. Larson, G. J. Leonard, D. Rankin, R. L. Seaman, F. C.
   Shelly. 1.55-m reflector + CCD.

Orbital elements:  C2KGVW2
   Perihelion 2020 Aug 24.106234 +/- 0.342 TT =  2:32:58 (JD 2459085.606234)
Epoch 2020 May 25.0 TT = JDT 2458994.5   Sa: 0.0108           AutoNEOCP
M 358.65962565 +/- 0.011            (J2000 ecliptic)
n   0.01471221 +/- 7.08e-5          Peri.  104.59539 +/- 0.038
a  16.4949388 +/- 0.0529            Node   290.14495 +/- 0.0033
e   0.7067249 +/- 0.000901          Incl.  147.29801 +/- 0.00057
P  66.99                   H 15.0   G  0.15   U  6.3  
q 4.83755370 +/- 0.000654    Q 28.1523239 +/- 0.104
From 74 observations 2020 Apr. 18-May 25; mean residual 0".31
Residuals in arcseconds: 
200418 G96  .47-  .01+    200424 L01  .09+  .20-    200513 F52  .27-  .11+    
200418 G96  .02+  .30+    200424 L01  .10-  .30+    200513 F52  .40-  .11-    
200418 G96  .09-  .22-    200426 V06  .25+  .16+    200513 F52  .32-  .12-    
200418 G96  .05-  .26+    200426 V06  .01-  .01-    200513 F65  .28+  .05+    
200418 V06  .01+  .17-    200426 V06  .24+  .09-    200513 F65  .32+  .09+    
200418 V06  .05+  .04+    200426 V06  .16-  .06-    200513 F65  .25+  .13+    
200418 V06  .43-  .16-    200428 V06  .01+  .07-    200513 F65  .28+  .12+    
200418 V06  .14+  .05+    200428 V06  .03+  .24-    200517 F65  .25+  .09-    
200419 H21  .40+  .30+    200428 V06  .21-  .01-    200517 F65  .21+  .01+    
200419 H21  .08+  .36+    200428 V06  .07+  .28-    200517 F65  .21-  .01+    
200421 V06  .37+  .07+    200428 F52  .01+  .12+    200517 F65  .14+  .09-    
200421 V06  .18+  .11-    200428 F52  .01-  .12-    200519 H06  .29-  .14+    
200421 V06  .26-  .09-    200428 F52  .22+  .07+    200519 H06  .39+  .11+    
200422 V06  1.1-  .42-    200428 F52  .14+  .01-    200519 658  .63-  .91+    
200422 V06  1.8+  1.2-    200429 G96  .37-  .24+    200519 658  .53-  .76+    
200422 V06  .13-  .03+    200429 G96  .07-  .35-    200519 658  .33-  .52+    
200422 V06  .11+  .20+    200429 G96  .08+  .06+    200519 658  .14-  .28+    
200422 F65  .05-  .17+    200429 G96  .12+  .28+    200519 658  .18-  .24+    
200422 F65  .07-  .18+    200501 V06  .42-  .08-    200519 658  .22-  .00     
200422 F65  .22-  .10+    200501 V06  .19-  .10-    200525 673  .30+  .16-    
